Location: La Vergne
(36.0160°N, 86.5820°W)
Time: 00:27:44
(UTC-05:00)

Lacrosse 5 - Pass Details

Date: 24 September 2017
Orbit: 716 x 722 km, 57.0° (Epoch: 16 October)

Event Time Altitude Azimuth Distance (km) Brightness Sun altitude
Rises 18:56:28 0° 310° (NW) 3,129 6.1 -4.2°
Reaches altitude 10° 18:59:01 10° 301° (WNW) 2,206 5.5 -4.7°
Maximum altitude 19:03:35 34° 238° (WSW) 1,172 3.6 -5.6°
Drops below altitude 10° 19:08:07 10° 173° (S) 2,197 4.3 -6.6°
Sets 19:10:40 0° 165° (SSE) 3,115 5.0 -7.1°
